DW0026 Weather Reports


time (UTC)temp
C
wind
direction
speed
KPH
gust
KPH
rain 1hr
cm
rain 24hr
cm
rain mn
cm
humidity
%
barometer
mb
20210920054507 11 44 0.0 0.0 0.00 0.00 0.00 44 1016.7
20210920053005 11 44 0.0 0.0 0.00 0.00 0.00 44 1016.6
20210920051502 12 44 0.0 11.3 0.00 0.00 0.00 42 1016.5
20210920050227 12 51 4.8 9.7 0.00 0.00 0.00 41 1016.1
20210920044734 13 51 4.8 14.5 0.00 0.00 0.00 40 1016.1
20210920043319 13 51 6.4 17.7 0.00 0.00 0.00 39 1016.2
20210920041637 13 53 6.4 16.1 0.00 0.00 0.00 39 1015.8
20210920040104 13 46 3.2 19.3 0.00 0.00 0.00 39 1015.3
20210920034716 13 65 11.3 22.5 0.00 0.00 0.00 38 1014.8
20210920033112 14 48 11.3 24.1 0.00 0.00 0.00 38 1014.4
20210920031619 14 61 12.9 24.1 0.00 0.00 0.00 37 1014.2
20210920030152 15 62 14.5 29.0 0.00 0.00 0.00 37 1014.0
20210920024536 15 44 14.5 29.0 0.00 0.00 0.00 37 1013.6
20210920023039 15 77 14.5 27.4 0.00 0.00 0.00 37 1013.5
20210920021545 15 81 12.9 25.7 0.00 0.00 0.00 37 1013.2
20210920020049 16 53 19.3 33.8 0.00 0.00 0.00 37 1012.8
20210920014533 16 57 19.3 29.0 0.00 0.00 0.00 36 1012.6
20210920013100 17 71 20.9 37.0 0.00 0.00 0.00 36 1012.5
20210920011533 18 77 19.3 29.0 0.00 0.00 0.00 34 1012.2
20210920010032 18 30 17.7 27.4 0.00 0.00 0.00 30 1012.0
20210920004546 19 51 12.9 27.4 0.00 0.00 0.00 29 1011.8
20210920003040 19 54 9.7 25.7 0.00 0.00 0.00 29 1011.5
20210920001537 20 54 17.7 35.4 0.00 0.00 0.00 29 1011.4
20210920000028 20 53 14.5 30.6 0.00 0.00 0.00 28 1011.4
20210919234523 20 59 11.3 25.7 0.00 0.00 0.00 28 1011.3
20210919233018 21 18 14.5 27.4 0.00 0.00 0.00 27 1011.3
20210919231527 21 34 6.4 22.5 0.00 0.00 0.00 27 1011.0
20210919230025 21 12 11.3 25.7 0.00 0.00 0.00 27 1011.2
20210919224544 21 33 6.4 24.1 0.00 0.00 0.00 27 1011.2
20210919223030 21 360 12.9 25.7 0.00 0.00 0.00 26 1011.0
20210919221557 21 5 8.0 27.4 0.00 0.00 0.00 25 1011.0
20210919220014 21 15 9.7 27.4 0.00 0.00 0.00 22 1011.3
20210919214536 21 355 14.5 27.4 0.00 0.00 0.00 23 1011.3
20210919213010 20 9 14.5 24.1 0.00 0.00 0.00 25 1011.2
20210919211520 20 333 9.7 30.6 0.00 0.00 0.00 26 1011.2
20210919210018 20 355 8.0 20.9 0.00 0.00 0.00 26 1011.4
20210919204509 20 5 12.9 32.2 0.00 0.00 0.00 26 1011.3
20210919203002 20 5 9.7 27.4 0.00 0.00 0.00 28 1011.5
20210919201612 20 360 9.7 29.0 0.00 0.00 0.00 29 1011.4
20210919200202 19 5 16.1 29.0 0.00 0.00 0.00 31 1011.4
20210919194608 18 331 17.7 27.4 0.00 0.00 0.00 31 1011.2
20210919193101 18 323 16.1 27.4 0.00 0.00 0.00 32 1011.4
20210919191752 18 360 8.0 25.7 0.00 0.00 0.00 33 1011.5
20210919190141 17 12 9.7 25.7 0.00 0.00 0.00 35 1011.4
20210919184547 18 350 9.7 27.4 0.00 0.00 0.00 35 1011.5
20210919183138 17 5 8.0 24.1 0.00 0.00 0.00 36 1011.4
20210919181711 17 11 17.7 27.4 0.00 0.00 0.00 37 1011.3
20210919180113 17 5 12.9 29.0 0.00 0.00 0.00 37 1011.2
20210919174530 16 342 19.3 27.4 0.00 0.00 0.00 39 1011.0
20210919173034 15 339 17.7 29.0 0.00 0.00 0.00 39 1011.0
20210919171538 15 344 22.5 37.0 0.00 0.00 0.00 40 1010.8
20210919170055 15 355 20.9 35.4 0.00 0.00 0.00 40 1010.7
20210919164555 15 355 17.7 30.6 0.00 0.00 0.00 41 1010.5
20210919163039 15 360 19.3 29.0 0.00 0.00 0.00 42 1010.5
20210919161535 15 351 14.5 32.2 0.00 0.00 0.00 43 1010.4
20210919160029 15 355 14.5 27.4 0.00 0.00 0.00 43 1010.0
20210919154528 14 20 9.7 29.0 0.00 0.00 0.00 44 1010.0
20210919153030 14 18 16.1 29.0 0.00 0.00 0.00 45 1009.5
20210919151505 14 9 17.7 27.4 0.00 0.00 0.00 45 1009.2
20210919150143 15 297 12.9 37.0 0.00 0.00 0.00 44 1009.2
20210919144730 15 294 17.7 37.0 0.00 0.00 0.00 44 1008.5
20210919143117 14 288 19.3 32.2 0.00 0.00 0.00 44 1008.7
20210919141618 15 300 17.7 29.0 0.00 0.00 0.00 43 1008.8
20210919140053 15 296 16.1 38.6 0.00 0.00 0.00 44 1008.7
20210919134607 15 286 11.3 30.6 0.00 0.00 0.00 47 1008.4
20210919133112 15 266 14.5 30.6 0.00 0.00 0.00 47 1008.3
20210919131621 15 252 16.1 32.2 0.00 0.00 0.00 47 1008.0
20210919130050 15 259 11.3 33.8 0.00 0.00 0.00 47 1007.8
20210919124552 15 275 17.7 30.6 0.00 0.00 0.00 48 1007.9
20210919123124 15 275 12.9 29.0 0.00 0.00 0.00 49 1007.8
20210919121622 15 242 14.5 29.0 0.00 0.00 0.00 53 1007.6
20210919120116 16 274 12.9 29.0 0.00 0.00 0.00 54 1007.3
20210919114635 16 273 22.5 38.6 0.00 0.00 0.00 53 1007.1
20210919113047 15 283 17.7 37.0 0.00 0.00 0.00 54 1007.1
20210919111622 16 259 19.3 51.5 0.00 0.00 0.00 54 1007.5
20210919110051 16 280 19.3 38.6 0.00 0.00 0.00 55 1007.2
20210919104605 16 252 14.5 32.2 0.00 0.00 0.00 52 1007.2
20210919103026 16 290 17.7 40.2 0.00 0.00 0.00 51 1007.2
20210919101623 16 244 19.3 40.2 0.00 0.00 0.00 51 1007.2
20210919100034 16 238 16.1 27.4 0.00 0.00 0.00 52 1007.6
20210919094604 16 274 12.9 25.7 0.00 0.00 0.00 53 1007.4
20210919093022 16 250 6.4 16.1 0.00 0.00 0.00 53 1007.3
20210919091534 16 273 9.7 24.1 0.00 0.00 0.00 52 1007.7
20210919090024 15 231 4.8 11.3 0.00 0.00 0.00 52 1007.7
20210919084550 15 227 0.0 0.0 0.00 0.00 0.00 48 1007.7
20210919083015 15 227 0.0 0.0 0.00 0.00 0.00 46 1007.8
20210919081512 15 227 0.0 0.0 0.00 0.00 0.00 46 1007.9
20210919080011 15 227 0.0 1.6 0.00 0.00 0.00 42 1008.1
20210919074517 15 227 0.0 3.2 0.00 0.00 0.00 40 1008.2
20210919073005 15 227 0.0 3.2 0.00 0.00 0.00 38 1008.6
20210919071506 15 227 0.0 0.0 0.00 0.00 0.00 37 1008.8
20210919064649 15 227 0.0 11.3 0.00 0.00 0.00 36 1009.6
20210919063250 15 227 1.6 12.9 0.00 0.00 0.00 36 1009.4
20210919061711 15 215 0.0 6.4 0.00 0.00 0.00 37 1009.4
20210919060145 15 214 0.0 3.2 0.00 0.00 0.00 38 1009.4